#datetime,building,power
2022-06-27T00:00:00,sdl,3.63
2022-06-27T00:01:00,sdl,3.63
2022-06-27T00:02:00,sdl,2.32
2022-06-27T00:03:00,sdl,2.24
2022-06-27T00:04:00,sdl,2.39
2022-06-27T00:05:00,sdl,2.40
2022-06-27T00:06:00,sdl,2.33
2022-06-27T00:07:00,sdl,2.41
2022-06-27T00:08:00,sdl,2.82
2022-06-27T00:09:00,sdl,2.49
2022-06-27T00:10:00,sdl,2.64
2022-06-27T00:11:00,sdl,2.63
2022-06-27T00:12:00,sdl,2.57
2022-06-27T00:13:00,sdl,2.57
2022-06-27T00:14:00,sdl,2.59
2022-06-27T00:15:00,sdl,2.56
2022-06-27T00:16:00,sdl,5.81
2022-06-27T00:17:00,sdl,6.19
2022-06-27T00:18:00,sdl,6.20
2022-06-27T00:19:00,sdl,6.11
2022-06-27T00:20:00,sdl,6.09
2022-06-27T00:21:00,sdl,6.06
2022-06-27T00:22:00,sdl,6.06
2022-06-27T00:23:00,sdl,4.80
2022-06-27T00:24:00,sdl,4.78
2022-06-27T00:25:00,sdl,4.40
2022-06-27T00:26:00,sdl,4.42
2022-06-27T00:27:00,sdl,4.45
2022-06-27T00:28:00,sdl,4.96
2022-06-27T00:29:00,sdl,5.02
2022-06-27T00:30:00,sdl,4.98
2022-06-27T00:31:00,sdl,4.92
2022-06-27T00:32:00,sdl,4.93
2022-06-27T00:33:00,sdl,5.18
2022-06-27T00:34:00,sdl,2.59
2022-06-27T00:35:00,sdl,2.50
2022-06-27T00:36:00,sdl,3.84
2022-06-27T00:37:00,sdl,3.85
2022-06-27T00:38:00,sdl,3.84
2022-06-27T00:39:00,sdl,4.27
2022-06-27T00:40:00,sdl,3.86
2022-06-27T00:41:00,sdl,3.89
2022-06-27T00:42:00,sdl,2.66
2022-06-27T00:43:00,sdl,2.66
2022-06-27T00:44:00,sdl,2.46
2022-06-27T00:45:00,sdl,2.42
2022-06-27T00:46:00,sdl,2.64
2022-06-27T00:47:00,sdl,2.75
2022-06-27T00:48:00,sdl,2.57
2022-06-27T00:49:00,sdl,2.49
2022-06-27T00:50:00,sdl,2.53
2022-06-27T00:51:00,sdl,2.42
2022-06-27T00:52:00,sdl,2.45
2022-06-27T00:53:00,sdl,2.35
2022-06-27T00:54:00,sdl,3.74
2022-06-27T00:55:00,sdl,3.75
2022-06-27T00:56:00,sdl,3.76
2022-06-27T00:57:00,sdl,3.81
2022-06-27T00:58:00,sdl,3.89
2022-06-27T00:59:00,sdl,3.87
2022-06-27T01:00:00,sdl,2.96
2022-06-27T01:01:00,sdl,2.96
2022-06-27T01:02:00,sdl,2.48
2022-06-27T01:03:00,sdl,2.48
2022-06-27T01:04:00,sdl,2.51
2022-06-27T01:05:00,sdl,2.56
2022-06-27T01:06:00,sdl,2.48
2022-06-27T01:07:00,sdl,2.52
2022-06-27T01:08:00,sdl,2.96
2022-06-27T01:09:00,sdl,2.56
2022-06-27T01:10:00,sdl,2.54
2022-06-27T01:11:00,sdl,2.67
2022-06-27T01:12:00,sdl,3.89
2022-06-27T01:13:00,sdl,3.99
2022-06-27T01:14:00,sdl,3.99
2022-06-27T01:15:00,sdl,4.37
2022-06-27T01:16:00,sdl,3.92
2022-06-27T01:17:00,sdl,3.96
2022-06-27T01:18:00,sdl,2.65
2022-06-27T01:19:00,sdl,2.11
2022-06-27T01:20:00,sdl,4.37
2022-06-27T01:21:00,sdl,4.35
2022-06-27T01:22:00,sdl,4.37
2022-06-27T01:23:00,sdl,4.41
2022-06-27T01:24:00,sdl,4.38
2022-06-27T01:25:00,sdl,4.43
2022-06-27T01:26:00,sdl,4.43
2022-06-27T01:27:00,sdl,4.53
2022-06-27T01:28:00,sdl,4.66
2022-06-27T01:29:00,sdl,4.72
2022-06-27T01:30:00,sdl,5.83
2022-06-27T01:31:00,sdl,5.70
2022-06-27T01:32:00,sdl,5.73
2022-06-27T01:33:00,sdl,6.10
2022-06-27T01:34:00,sdl,6.11
2022-06-27T01:35:00,sdl,2.19
2022-06-27T01:36:00,sdl,2.22
2022-06-27T01:37:00,sdl,2.26
2022-06-27T01:38:00,sdl,2.23
2022-06-27T01:39:00,sdl,2.25
2022-06-27T01:40:00,sdl,2.41
2022-06-27T01:41:00,sdl,2.23
2022-06-27T01:42:00,sdl,2.67
2022-06-27T01:43:00,sdl,2.26
2022-06-27T01:44:00,sdl,2.15
2022-06-27T01:45:00,sdl,2.25
2022-06-27T01:46:00,sdl,1.98
2022-06-27T01:47:00,sdl,2.40
2022-06-27T01:48:00,sdl,3.57
2022-06-27T01:49:00,sdl,3.55
2022-06-27T01:50:00,sdl,5.76
2022-06-27T01:51:00,sdl,5.75
2022-06-27T01:52:00,sdl,5.77
2022-06-27T01:53:00,sdl,5.79
2022-06-27T01:54:00,sdl,4.55
2022-06-27T01:55:00,sdl,4.51
2022-06-27T01:56:00,sdl,4.83
2022-06-27T01:57:00,sdl,4.81
2022-06-27T01:58:00,sdl,4.75
2022-06-27T01:59:00,sdl,4.76
2022-06-27T02:00:00,sdl,4.77
2022-06-27T02:01:00,sdl,6.16
2022-06-27T02:02:00,sdl,6.68
2022-06-27T02:03:00,sdl,6.72
2022-06-27T02:04:00,sdl,4.18
2022-06-27T02:05:00,sdl,3.47
2022-06-27T02:06:00,sdl,4.94
2022-06-27T02:07:00,sdl,9.54
2022-06-27T02:08:00,sdl,9.74
2022-06-27T02:09:00,sdl,9.75
2022-06-27T02:10:00,sdl,10.04
2022-06-27T02:11:00,sdl,9.60
2022-06-27T02:12:00,sdl,8.71
2022-06-27T02:13:00,sdl,8.65
2022-06-27T02:14:00,sdl,8.68
2022-06-27T02:15:00,sdl,8.77
2022-06-27T02:16:00,sdl,8.79
2022-06-27T02:17:00,sdl,8.89
2022-06-27T02:18:00,sdl,8.85
2022-06-27T02:19:00,sdl,8.90
2022-06-27T02:20:00,sdl,9.29
2022-06-27T02:21:00,sdl,8.80
2022-06-27T02:22:00,sdl,8.94
2022-06-27T02:23:00,sdl,8.95
2022-06-27T02:24:00,sdl,9.90
2022-06-27T02:25:00,sdl,9.91
2022-06-27T02:26:00,sdl,9.92
2022-06-27T02:27:00,sdl,9.72
2022-06-27T02:28:00,sdl,9.72
2022-06-27T02:29:00,sdl,10.13
2022-06-27T02:30:00,sdl,9.20
2022-06-27T02:31:00,sdl,8.89
2022-06-27T02:32:00,sdl,8.80
2022-06-27T02:33:00,sdl,8.70
2022-06-27T02:34:00,sdl,10.96
2022-06-27T02:35:00,sdl,10.88
2022-06-27T02:36:00,sdl,10.85
2022-06-27T02:37:00,sdl,10.82
2022-06-27T02:38:00,sdl,10.75
2022-06-27T02:39:00,sdl,10.90
2022-06-27T02:40:00,sdl,10.87
2022-06-27T02:41:00,sdl,10.83
2022-06-27T02:42:00,sdl,10.83
2022-06-27T02:43:00,sdl,11.58
2022-06-27T02:44:00,sdl,11.49
2022-06-27T02:45:00,sdl,11.72
2022-06-27T02:46:00,sdl,11.69
2022-06-27T02:47:00,sdl,11.75
2022-06-27T02:48:00,sdl,11.75
2022-06-27T02:49:00,sdl,10.57
2022-06-27T02:50:00,sdl,10.63
2022-06-27T02:51:00,sdl,10.68
2022-06-27T02:52:00,sdl,8.36
2022-06-27T02:53:00,sdl,8.45
2022-06-27T02:54:00,sdl,8.44
2022-06-27T02:55:00,sdl,8.35
2022-06-27T02:56:00,sdl,8.32
2022-06-27T02:57:00,sdl,8.38
2022-06-27T02:58:00,sdl,8.41
2022-06-27T02:59:00,sdl,8.35
2022-06-27T03:00:00,sdl,8.46
2022-06-27T03:01:00,sdl,8.88
2022-06-27T03:02:00,sdl,8.90
2022-06-27T03:03:00,sdl,9.38
2022-06-27T03:04:00,sdl,9.53
2022-06-27T03:05:00,sdl,9.87
2022-06-27T03:06:00,sdl,9.38
2022-06-27T03:07:00,sdl,9.32
2022-06-27T03:08:00,sdl,9.71
2022-06-27T03:09:00,sdl,8.46
2022-06-27T03:10:00,sdl,8.42
2022-06-27T03:11:00,sdl,9.07
2022-06-27T03:12:00,sdl,10.72
2022-06-27T03:13:00,sdl,10.52
2022-06-27T03:14:00,sdl,10.54
2022-06-27T03:15:00,sdl,10.54
2022-06-27T03:16:00,sdl,10.62
2022-06-27T03:17:00,sdl,10.55
2022-06-27T03:18:00,sdl,10.68
2022-06-27T03:19:00,sdl,10.52
2022-06-27T03:20:00,sdl,11.07
2022-06-27T03:21:00,sdl,10.54
2022-06-27T03:22:00,sdl,10.60
2022-06-27T03:23:00,sdl,8.33
2022-06-27T03:24:00,sdl,9.21
2022-06-27T03:25:00,sdl,9.21
2022-06-27T03:26:00,sdl,9.22
2022-06-27T03:27:00,sdl,9.22
2022-06-27T03:28:00,sdl,9.23
2022-06-27T03:29:00,sdl,8.79
2022-06-27T03:30:00,sdl,8.70
2022-06-27T03:31:00,sdl,8.90
2022-06-27T03:32:00,sdl,8.89
2022-06-27T03:33:00,sdl,9.33
2022-06-27T03:34:00,sdl,8.92
2022-06-27T03:35:00,sdl,8.95
2022-06-27T03:36:00,sdl,8.91
2022-06-27T03:37:00,sdl,8.78
2022-06-27T03:38:00,sdl,8.73
2022-06-27T03:39:00,sdl,8.82
2022-06-27T03:40:00,sdl,8.77
2022-06-27T03:41:00,sdl,8.76
2022-06-27T03:42:00,sdl,8.78
2022-06-27T03:43:00,sdl,8.77
2022-06-27T03:44:00,sdl,11.74
2022-06-27T03:45:00,sdl,11.63
2022-06-27T03:46:00,sdl,12.30
2022-06-27T03:47:00,sdl,11.98
2022-06-27T03:48:00,sdl,12.03
2022-06-27T03:49:00,sdl,11.99
2022-06-27T03:50:00,sdl,10.92
2022-06-27T03:51:00,sdl,10.96
2022-06-27T03:52:00,sdl,10.95
2022-06-27T03:53:00,sdl,10.90
2022-06-27T03:54:00,sdl,10.48
2022-06-27T03:55:00,sdl,10.87
2022-06-27T03:56:00,sdl,11.07
2022-06-27T03:57:00,sdl,10.72
2022-06-27T03:58:00,sdl,11.08
2022-06-27T03:59:00,sdl,11.10
2022-06-27T04:00:00,sdl,11.02
2022-06-27T04:01:00,sdl,10.75
2022-06-27T04:02:00,sdl,10.82
2022-06-27T04:03:00,sdl,9.59
2022-06-27T04:04:00,sdl,9.66
2022-06-27T04:05:00,sdl,9.72
2022-06-27T04:06:00,sdl,9.69
2022-06-27T04:07:00,sdl,9.75
2022-06-27T04:08:00,sdl,9.70
2022-06-27T04:09:00,sdl,9.66
2022-06-27T04:10:00,sdl,9.72
2022-06-27T04:11:00,sdl,10.84
2022-06-27T04:12:00,sdl,8.81
2022-06-27T04:13:00,sdl,9.09
2022-06-27T04:14:00,sdl,8.94
2022-06-27T04:15:00,sdl,9.07
2022-06-27T04:16:00,sdl,8.92
2022-06-27T04:17:00,sdl,8.99
2022-06-27T04:18:00,sdl,9.65
2022-06-27T04:19:00,sdl,9.25
2022-06-27T04:20:00,sdl,9.57
2022-06-27T04:21:00,sdl,9.80
2022-06-27T04:22:00,sdl,9.24
2022-06-27T04:23:00,sdl,9.22
2022-06-27T04:24:00,sdl,9.55
2022-06-27T04:25:00,sdl,9.16
2022-06-27T04:26:00,sdl,10.21
2022-06-27T04:27:00,sdl,9.39
2022-06-27T04:28:00,sdl,11.59
2022-06-27T04:29:00,sdl,12.03
2022-06-27T04:30:00,sdl,12.06
2022-06-27T04:31:00,sdl,12.05
2022-06-27T04:32:00,sdl,11.65
2022-06-27T04:33:00,sdl,11.70
2022-06-27T04:34:00,sdl,11.67
2022-06-27T04:35:00,sdl,10.65
2022-06-27T04:36:00,sdl,10.69
2022-06-27T04:37:00,sdl,11.38
2022-06-27T04:38:00,sdl,10.60
2022-06-27T04:39:00,sdl,8.31
2022-06-27T04:40:00,sdl,8.29
2022-06-27T04:41:00,sdl,8.38
2022-06-27T04:42:00,sdl,8.43
2022-06-27T04:43:00,sdl,8.51
2022-06-27T04:44:00,sdl,8.48
2022-06-27T04:45:00,sdl,8.35
2022-06-27T04:46:00,sdl,8.37
2022-06-27T04:47:00,sdl,8.36
2022-06-27T04:48:00,sdl,8.42
2022-06-27T04:49:00,sdl,8.39
2022-06-27T04:50:00,sdl,9.32
2022-06-27T04:51:00,sdl,9.35
2022-06-27T04:52:00,sdl,9.38
2022-06-27T04:53:00,sdl,9.37
2022-06-27T04:54:00,sdl,9.63
2022-06-27T04:55:00,sdl,11.51
2022-06-27T04:56:00,sdl,10.63
2022-06-27T04:57:00,sdl,11.13
2022-06-27T04:58:00,sdl,11.04
2022-06-27T04:59:00,sdl,10.91
2022-06-27T05:00:00,sdl,11.38
2022-06-27T05:01:00,sdl,11.36
2022-06-27T05:02:00,sdl,11.29
2022-06-27T05:03:00,sdl,11.25
2022-06-27T05:04:00,sdl,11.64
2022-06-27T05:05:00,sdl,11.69
2022-06-27T05:06:00,sdl,11.19
2022-06-27T05:07:00,sdl,11.25
2022-06-27T05:08:00,sdl,11.45
2022-06-27T05:09:00,sdl,11.15
2022-06-27T05:10:00,sdl,11.10
2022-06-27T05:11:00,sdl,11.15
2022-06-27T05:12:00,sdl,12.07
2022-06-27T05:13:00,sdl,9.94
2022-06-27T05:14:00,sdl,9.95
2022-06-27T05:15:00,sdl,9.94
2022-06-27T05:16:00,sdl,9.95
2022-06-27T05:17:00,sdl,9.92
2022-06-27T05:18:00,sdl,9.10
2022-06-27T05:19:00,sdl,9.17
2022-06-27T05:20:00,sdl,9.18
2022-06-27T05:21:00,sdl,9.16
2022-06-27T05:22:00,sdl,9.10
2022-06-27T05:23:00,sdl,9.12
2022-06-27T05:24:00,sdl,9.56
2022-06-27T05:25:00,sdl,9.76
2022-06-27T05:26:00,sdl,9.73
2022-06-27T05:27:00,sdl,9.14
2022-06-27T05:28:00,sdl,9.16
2022-06-27T05:29:00,sdl,9.17
2022-06-27T05:30:00,sdl,9.13
2022-06-27T05:31:00,sdl,9.13
2022-06-27T05:32:00,sdl,9.50
2022-06-27T05:33:00,sdl,9.53
2022-06-27T05:34:00,sdl,10.06
2022-06-27T05:35:00,sdl,10.18
2022-06-27T05:36:00,sdl,10.19
2022-06-27T05:37:00,sdl,10.63
2022-06-27T05:38:00,sdl,10.28
2022-06-27T05:39:00,sdl,9.60
2022-06-27T05:40:00,sdl,9.23
2022-06-27T05:41:00,sdl,8.83
2022-06-27T05:42:00,sdl,8.75
2022-06-27T05:43:00,sdl,8.80
2022-06-27T05:44:00,sdl,8.79
2022-06-27T05:45:00,sdl,8.55
2022-06-27T05:46:00,sdl,8.63
2022-06-27T05:47:00,sdl,8.59
2022-06-27T05:48:00,sdl,8.58
2022-06-27T05:49:00,sdl,10.74
2022-06-27T05:50:00,sdl,10.76
2022-06-27T05:51:00,sdl,10.85
2022-06-27T05:52:00,sdl,10.97
2022-06-27T05:53:00,sdl,11.32
2022-06-27T05:54:00,sdl,11.01
2022-06-27T05:55:00,sdl,12.33
2022-06-27T05:56:00,sdl,12.28
2022-06-27T05:57:00,sdl,12.17
2022-06-27T05:58:00,sdl,12.16
2022-06-27T05:59:00,sdl,12.58
2022-06-27T06:00:00,sdl,11.60
2022-06-27T06:01:00,sdl,11.63
2022-06-27T06:02:00,sdl,11.35
2022-06-27T06:03:00,sdl,11.23
2022-06-27T06:04:00,sdl,11.27
2022-06-27T06:05:00,sdl,11.28
2022-06-27T06:06:00,sdl,9.05
2022-06-27T06:07:00,sdl,9.52
2022-06-27T06:08:00,sdl,9.32
2022-06-27T06:09:00,sdl,9.21
2022-06-27T06:10:00,sdl,9.22
2022-06-27T06:11:00,sdl,9.16
2022-06-27T06:12:00,sdl,9.07
2022-06-27T06:13:00,sdl,8.99
2022-06-27T06:14:00,sdl,9.01
2022-06-27T06:15:00,sdl,10.07
2022-06-27T06:16:00,sdl,9.89
2022-06-27T06:17:00,sdl,9.86
2022-06-27T06:18:00,sdl,9.92
2022-06-27T06:19:00,sdl,9.92
2022-06-27T06:20:00,sdl,9.95
2022-06-27T06:21:00,sdl,8.97
2022-06-27T06:22:00,sdl,11.43
2022-06-27T06:23:00,sdl,10.98
2022-06-27T06:24:00,sdl,10.96
2022-06-27T06:25:00,sdl,10.94
2022-06-27T06:26:00,sdl,10.91
2022-06-27T06:27:00,sdl,11.42
2022-06-27T06:28:00,sdl,10.85
2022-06-27T06:29:00,sdl,10.85
2022-06-27T06:30:00,sdl,10.96
2022-06-27T06:31:00,sdl,10.97
2022-06-27T06:32:00,sdl,10.97
2022-06-27T06:33:00,sdl,11.05
2022-06-27T06:34:00,sdl,9.28
2022-06-27T06:35:00,sdl,9.81
2022-06-27T06:36:00,sdl,9.43
2022-06-27T06:37:00,sdl,9.47
2022-06-27T06:38:00,sdl,9.48
2022-06-27T06:39:00,sdl,9.42
2022-06-27T06:40:00,sdl,8.52
2022-06-27T06:41:00,sdl,8.49
2022-06-27T06:42:00,sdl,8.62
2022-06-27T06:43:00,sdl,8.66
2022-06-27T06:44:00,sdl,8.58
2022-06-27T06:45:00,sdl,8.39
2022-06-27T06:46:00,sdl,8.64
2022-06-27T06:47:00,sdl,9.20
2022-06-27T06:48:00,sdl,8.86
2022-06-27T06:49:00,sdl,8.83
2022-06-27T06:50:00,sdl,8.80
2022-06-27T06:51:00,sdl,8.82
2022-06-27T06:52:00,sdl,8.85
2022-06-27T06:53:00,sdl,8.87
2022-06-27T06:54:00,sdl,8.89
2022-06-27T06:55:00,sdl,9.84
2022-06-27T06:56:00,sdl,9.76
2022-06-27T06:57:00,sdl,9.65
2022-06-27T06:58:00,sdl,9.83
2022-06-27T06:59:00,sdl,9.73
2022-06-27T07:00:00,sdl,8.77
2022-06-27T07:01:00,sdl,8.81
2022-06-27T07:02:00,sdl,11.81
2022-06-27T07:03:00,sdl,14.45
2022-06-27T07:04:00,sdl,14.43
2022-06-27T07:05:00,sdl,14.08
2022-06-27T07:06:00,sdl,14.17
2022-06-27T07:07:00,sdl,14.33
2022-06-27T07:08:00,sdl,14.88
2022-06-27T07:09:00,sdl,17.15
2022-06-27T07:10:00,sdl,17.36
2022-06-27T07:11:00,sdl,17.46
2022-06-27T07:12:00,sdl,17.50
2022-06-27T07:13:00,sdl,18.02
2022-06-27T07:14:00,sdl,18.71
2022-06-27T07:15:00,sdl,18.10
2022-06-27T07:16:00,sdl,19.32
2022-06-27T07:17:00,sdl,22.36
2022-06-27T07:18:00,sdl,22.60
2022-06-27T07:19:00,sdl,22.74
2022-06-27T07:20:00,sdl,22.85
2022-06-27T07:21:00,sdl,22.20
2022-06-27T07:22:00,sdl,21.22
2022-06-27T07:23:00,sdl,20.20
2022-06-27T07:24:00,sdl,20.53
2022-06-27T07:25:00,sdl,20.42
2022-06-27T07:26:00,sdl,20.40
2022-06-27T07:27:00,sdl,20.70
2022-06-27T07:28:00,sdl,20.57
2022-06-27T07:29:00,sdl,20.99
2022-06-27T07:30:00,sdl,20.92
2022-06-27T07:31:00,sdl,20.54
2022-06-27T07:32:00,sdl,20.51
2022-06-27T07:33:00,sdl,20.43
2022-06-27T07:34:00,sdl,20.60
2022-06-27T07:35:00,sdl,19.84
2022-06-27T07:36:00,sdl,20.71
2022-06-27T07:37:00,sdl,20.44
2022-06-27T07:38:00,sdl,21.39
2022-06-27T07:39:00,sdl,22.51
2022-06-27T07:40:00,sdl,23.45
2022-06-27T07:41:00,sdl,22.55
2022-06-27T07:42:00,sdl,22.60
2022-06-27T07:43:00,sdl,23.01
2022-06-27T07:44:00,sdl,22.41
2022-06-27T07:45:00,sdl,22.65
2022-06-27T07:46:00,sdl,22.37
2022-06-27T07:47:00,sdl,22.30
2022-06-27T07:48:00,sdl,22.42
2022-06-27T07:49:00,sdl,22.25
2022-06-27T07:50:00,sdl,23.72
2022-06-27T07:51:00,sdl,21.38
2022-06-27T07:52:00,sdl,21.62
2022-06-27T07:53:00,sdl,22.14
2022-06-27T07:54:00,sdl,21.58
2022-06-27T07:55:00,sdl,22.29
2022-06-27T07:56:00,sdl,22.46
2022-06-27T07:57:00,sdl,22.29
2022-06-27T07:58:00,sdl,22.07
2022-06-27T07:59:00,sdl,21.70
2022-06-27T08:00:00,sdl,21.47
2022-06-27T08:01:00,sdl,21.73
2022-06-27T08:02:00,sdl,21.64
2022-06-27T08:03:00,sdl,20.50
2022-06-27T08:04:00,sdl,21.54
2022-06-27T08:05:00,sdl,21.62
2022-06-27T08:06:00,sdl,21.50
2022-06-27T08:07:00,sdl,21.13
2022-06-27T08:08:00,sdl,21.11
2022-06-27T08:09:00,sdl,19.75
2022-06-27T08:10:00,sdl,19.79
2022-06-27T08:11:00,sdl,21.71
2022-06-27T08:12:00,sdl,21.89
2022-06-27T08:13:00,sdl,21.88
2022-06-27T08:14:00,sdl,21.84
2022-06-27T08:15:00,sdl,21.69
2022-06-27T08:16:00,sdl,21.70
2022-06-27T08:17:00,sdl,21.46
2022-06-27T08:18:00,sdl,22.34
2022-06-27T08:19:00,sdl,22.46
2022-06-27T08:20:00,sdl,22.45
2022-06-27T08:21:00,sdl,22.61
2022-06-27T08:22:00,sdl,23.19
2022-06-27T08:23:00,sdl,22.55
2022-06-27T08:24:00,sdl,22.00
2022-06-27T08:25:00,sdl,22.27
2022-06-27T08:26:00,sdl,23.08
2022-06-27T08:27:00,sdl,22.60
2022-06-27T08:28:00,sdl,22.29
2022-06-27T08:29:00,sdl,22.20
2022-06-27T08:30:00,sdl,22.21
2022-06-27T08:31:00,sdl,22.17
2022-06-27T08:32:00,sdl,20.13
2022-06-27T08:33:00,sdl,19.79
2022-06-27T08:34:00,sdl,19.98
2022-06-27T08:35:00,sdl,19.91
2022-06-27T08:36:00,sdl,19.87
2022-06-27T08:37:00,sdl,19.93
2022-06-27T08:38:00,sdl,21.28
2022-06-27T08:39:00,sdl,20.94
2022-06-27T08:40:00,sdl,20.93
2022-06-27T08:41:00,sdl,21.07
2022-06-27T08:42:00,sdl,21.34
2022-06-27T08:43:00,sdl,21.20
2022-06-27T08:44:00,sdl,20.30
2022-06-27T08:45:00,sdl,20.25
2022-06-27T08:46:00,sdl,20.25
2022-06-27T08:47:00,sdl,20.15
2022-06-27T08:48:00,sdl,20.18
2022-06-27T08:49:00,sdl,20.67
2022-06-27T08:50:00,sdl,20.78
2022-06-27T08:51:00,sdl,20.75
2022-06-27T08:52:00,sdl,20.85
2022-06-27T08:53:00,sdl,20.84
2022-06-27T08:54:00,sdl,20.86
2022-06-27T08:55:00,sdl,20.92
2022-06-27T08:56:00,sdl,20.83
2022-06-27T08:57:00,sdl,21.49
2022-06-27T08:58:00,sdl,22.49
2022-06-27T08:59:00,sdl,21.65
2022-06-27T09:00:00,sdl,22.15
2022-06-27T09:01:00,sdl,21.98
2022-06-27T09:02:00,sdl,21.85
2022-06-27T09:03:00,sdl,23.48
2022-06-27T09:04:00,sdl,23.07
2022-06-27T09:05:00,sdl,23.15
2022-06-27T09:06:00,sdl,22.56
2022-06-27T09:07:00,sdl,22.51
2022-06-27T09:08:00,sdl,22.47
2022-06-27T09:09:00,sdl,23.12
2022-06-27T09:10:00,sdl,22.64
2022-06-27T09:11:00,sdl,22.38
2022-06-27T09:12:00,sdl,22.16
2022-06-27T09:13:00,sdl,22.35
2022-06-27T09:14:00,sdl,22.41
2022-06-27T09:15:00,sdl,22.40
2022-06-27T09:16:00,sdl,20.39
2022-06-27T09:17:00,sdl,20.38
2022-06-27T09:18:00,sdl,20.46
2022-06-27T09:19:00,sdl,20.45
2022-06-27T09:20:00,sdl,21.22
2022-06-27T09:21:00,sdl,21.21
2022-06-27T09:22:00,sdl,21.75
2022-06-27T09:23:00,sdl,21.30
2022-06-27T09:24:00,sdl,21.18
2022-06-27T09:25:00,sdl,22.32
2022-06-27T09:26:00,sdl,21.14
2022-06-27T09:27:00,sdl,20.75
2022-06-27T09:28:00,sdl,20.73
2022-06-27T09:29:00,sdl,20.45
2022-06-27T09:30:00,sdl,20.41
2022-06-27T09:31:00,sdl,22.51
2022-06-27T09:32:00,sdl,22.68
2022-06-27T09:33:00,sdl,16.58
2022-06-27T09:34:00,sdl,16.66
2022-06-27T09:35:00,sdl,16.41
2022-06-27T09:36:00,sdl,16.44
2022-06-27T09:37:00,sdl,16.31
2022-06-27T09:38:00,sdl,16.40
2022-06-27T09:39:00,sdl,15.78
2022-06-27T09:40:00,sdl,15.77
2022-06-27T09:41:00,sdl,16.29
2022-06-27T09:42:00,sdl,16.19
2022-06-27T09:43:00,sdl,16.55
2022-06-27T09:44:00,sdl,16.71
2022-06-27T09:45:00,sdl,16.62
2022-06-27T09:46:00,sdl,17.25
2022-06-27T09:47:00,sdl,17.32
2022-06-27T09:48:00,sdl,16.22
2022-06-27T09:49:00,sdl,13.96
2022-06-27T09:50:00,sdl,13.62
2022-06-27T09:51:00,sdl,13.80
2022-06-27T09:52:00,sdl,13.71
2022-06-27T09:53:00,sdl,13.69
2022-06-27T09:54:00,sdl,14.00
2022-06-27T09:55:00,sdl,14.31
2022-06-27T09:56:00,sdl,13.58
2022-06-27T09:57:00,sdl,13.79
2022-06-27T09:58:00,sdl,13.67
2022-06-27T09:59:00,sdl,13.42
2022-06-27T10:00:00,sdl,13.14
2022-06-27T10:01:00,sdl,13.20
2022-06-27T10:02:00,sdl,12.71
2022-06-27T10:03:00,sdl,13.81
2022-06-27T10:04:00,sdl,14.06
2022-06-27T10:05:00,sdl,14.86
2022-06-27T10:06:00,sdl,14.80
2022-06-27T10:07:00,sdl,14.35
2022-06-27T10:08:00,sdl,14.40
2022-06-27T10:09:00,sdl,14.66
2022-06-27T10:10:00,sdl,13.64
2022-06-27T10:11:00,sdl,13.67
2022-06-27T10:12:00,sdl,13.66
2022-06-27T10:13:00,sdl,13.66
2022-06-27T10:14:00,sdl,14.25
2022-06-27T10:15:00,sdl,14.47
2022-06-27T10:16:00,sdl,16.36
2022-06-27T10:17:00,sdl,16.28
2022-06-27T10:18:00,sdl,16.30
2022-06-27T10:19:00,sdl,17.37
2022-06-27T10:20:00,sdl,17.96
2022-06-27T10:21:00,sdl,18.08
2022-06-27T10:22:00,sdl,18.16
2022-06-27T10:23:00,sdl,16.52
2022-06-27T10:24:00,sdl,17.80
2022-06-27T10:25:00,sdl,18.14
2022-06-27T10:26:00,sdl,17.80
2022-06-27T10:27:00,sdl,17.83
2022-06-27T10:28:00,sdl,17.23
2022-06-27T10:29:00,sdl,17.74
2022-06-27T10:30:00,sdl,17.88
2022-06-27T10:31:00,sdl,17.89
2022-06-27T10:32:00,sdl,17.60
2022-06-27T10:33:00,sdl,18.28
2022-06-27T10:34:00,sdl,17.57
2022-06-27T10:35:00,sdl,17.75
2022-06-27T10:36:00,sdl,15.73
2022-06-27T10:37:00,sdl,15.68
2022-06-27T10:38:00,sdl,15.59
2022-06-27T10:39:00,sdl,14.68
2022-06-27T10:40:00,sdl,15.39
2022-06-27T10:41:00,sdl,14.76
2022-06-27T10:42:00,sdl,14.71
2022-06-27T10:43:00,sdl,14.15
2022-06-27T10:44:00,sdl,14.83
2022-06-27T10:45:00,sdl,15.28
2022-06-27T10:46:00,sdl,15.73
2022-06-27T10:47:00,sdl,15.73
2022-06-27T10:48:00,sdl,15.93
2022-06-27T10:49:00,sdl,16.16
2022-06-27T10:50:00,sdl,20.66
2022-06-27T10:51:00,sdl,20.84
2022-06-27T10:52:00,sdl,20.93
2022-06-27T10:53:00,sdl,21.39
2022-06-27T10:54:00,sdl,20.83
2022-06-27T10:55:00,sdl,20.73
2022-06-27T10:56:00,sdl,20.35
2022-06-27T10:57:00,sdl,23.42
2022-06-27T10:58:00,sdl,23.47
2022-06-27T10:59:00,sdl,23.65
2022-06-27T11:00:00,sdl,23.73
2022-06-27T11:01:00,sdl,23.72
2022-06-27T11:02:00,sdl,22.08
2022-06-27T11:03:00,sdl,22.21
2022-06-27T11:04:00,sdl,22.24
2022-06-27T11:05:00,sdl,22.84
2022-06-27T11:06:00,sdl,22.62
2022-06-27T11:07:00,sdl,22.96
2022-06-27T11:08:00,sdl,22.90
2022-06-27T11:09:00,sdl,22.81
2022-06-27T11:10:00,sdl,22.78
2022-06-27T11:11:00,sdl,22.52
2022-06-27T11:12:00,sdl,22.30
2022-06-27T11:13:00,sdl,22.26
2022-06-27T11:14:00,sdl,22.35
2022-06-27T11:15:00,sdl,22.50
2022-06-27T11:16:00,sdl,22.51
2022-06-27T11:17:00,sdl,22.26
2022-06-27T11:18:00,sdl,22.46
2022-06-27T11:19:00,sdl,23.86
2022-06-27T11:20:00,sdl,23.87
2022-06-27T11:21:00,sdl,23.78
2022-06-27T11:22:00,sdl,23.91
2022-06-27T11:23:00,sdl,23.58
2022-06-27T11:24:00,sdl,23.82
2022-06-27T11:25:00,sdl,24.05
2022-06-27T11:26:00,sdl,24.01
2022-06-27T11:27:00,sdl,24.04
2022-06-27T11:28:00,sdl,23.88
2022-06-27T11:29:00,sdl,23.96
2022-06-27T11:30:00,sdl,23.90
2022-06-27T11:31:00,sdl,23.31
2022-06-27T11:32:00,sdl,23.67
2022-06-27T11:33:00,sdl,23.23
2022-06-27T11:34:00,sdl,23.37
2022-06-27T11:35:00,sdl,23.41
2022-06-27T11:36:00,sdl,23.96
2022-06-27T11:37:00,sdl,23.97
2022-06-27T11:38:00,sdl,23.68
2022-06-27T11:39:00,sdl,18.85
2022-06-27T11:40:00,sdl,18.92
2022-06-27T11:41:00,sdl,16.46
2022-06-27T11:42:00,sdl,16.35
2022-06-27T11:43:00,sdl,16.32
2022-06-27T11:44:00,sdl,16.91
2022-06-27T11:45:00,sdl,16.35
2022-06-27T11:46:00,sdl,16.70
2022-06-27T11:47:00,sdl,16.64
2022-06-27T11:48:00,sdl,15.75
2022-06-27T11:49:00,sdl,15.80
2022-06-27T11:50:00,sdl,15.77
2022-06-27T11:51:00,sdl,15.88
2022-06-27T11:52:00,sdl,15.65
2022-06-27T11:53:00,sdl,15.68
2022-06-27T11:54:00,sdl,16.03
2022-06-27T11:55:00,sdl,15.84
2022-06-27T11:56:00,sdl,16.03
2022-06-27T11:57:00,sdl,16.01
2022-06-27T11:58:00,sdl,16.03
2022-06-27T11:59:00,sdl,18.38
2022-06-27T12:00:00,sdl,18.45
2022-06-27T12:01:00,sdl,17.87
2022-06-27T12:02:00,sdl,17.79
2022-06-27T12:03:00,sdl,18.23
2022-06-27T12:04:00,sdl,17.86
2022-06-27T12:05:00,sdl,18.70
2022-06-27T12:06:00,sdl,17.76
2022-06-27T12:07:00,sdl,18.16
2022-06-27T12:08:00,sdl,18.78
2022-06-27T12:09:00,sdl,19.18
2022-06-27T12:10:00,sdl,15.94
2022-06-27T12:11:00,sdl,15.84
2022-06-27T12:12:00,sdl,15.50
2022-06-27T12:13:00,sdl,15.42
2022-06-27T12:14:00,sdl,15.41
2022-06-27T12:15:00,sdl,15.44
2022-06-27T12:16:00,sdl,15.57
2022-06-27T12:17:00,sdl,15.32
2022-06-27T12:18:00,sdl,15.18
2022-06-27T12:19:00,sdl,14.96
2022-06-27T12:20:00,sdl,15.01
2022-06-27T12:21:00,sdl,14.89
2022-06-27T12:22:00,sdl,13.83
2022-06-27T12:23:00,sdl,15.25
2022-06-27T12:24:00,sdl,17.86
2022-06-27T12:25:00,sdl,17.52
2022-06-27T12:26:00,sdl,17.95
2022-06-27T12:27:00,sdl,19.25
2022-06-27T12:28:00,sdl,18.19
2022-06-27T12:29:00,sdl,19.52
2022-06-27T12:30:00,sdl,19.53
2022-06-27T12:31:00,sdl,19.52
2022-06-27T12:32:00,sdl,19.62
2022-06-27T12:33:00,sdl,19.59
2022-06-27T12:34:00,sdl,19.34
2022-06-27T12:35:00,sdl,19.29
2022-06-27T12:36:00,sdl,19.23
2022-06-27T12:37:00,sdl,19.62
2022-06-27T12:38:00,sdl,18.66
2022-06-27T12:39:00,sdl,20.97
2022-06-27T12:40:00,sdl,20.81
2022-06-27T12:41:00,sdl,20.73
2022-06-27T12:42:00,sdl,20.88
2022-06-27T12:43:00,sdl,21.44
2022-06-27T12:44:00,sdl,20.97
2022-06-27T12:45:00,sdl,20.79
2022-06-27T12:46:00,sdl,18.92
2022-06-27T12:47:00,sdl,17.15
2022-06-27T12:48:00,sdl,16.98
2022-06-27T12:49:00,sdl,17.03
2022-06-27T12:50:00,sdl,16.95
2022-06-27T12:51:00,sdl,16.95
2022-06-27T12:52:00,sdl,24.22
2022-06-27T12:53:00,sdl,19.30
2022-06-27T12:54:00,sdl,18.10
2022-06-27T12:55:00,sdl,18.04
2022-06-27T12:56:00,sdl,18.14
2022-06-27T12:57:00,sdl,18.02
2022-06-27T12:58:00,sdl,17.98
2022-06-27T12:59:00,sdl,21.24
2022-06-27T13:00:00,sdl,22.04
2022-06-27T13:01:00,sdl,21.45
2022-06-27T13:02:00,sdl,21.64
2022-06-27T13:03:00,sdl,22.98
2022-06-27T13:04:00,sdl,23.13
2022-06-27T13:05:00,sdl,22.88
2022-06-27T13:06:00,sdl,23.02
2022-06-27T13:07:00,sdl,23.13
2022-06-27T13:08:00,sdl,23.20
2022-06-27T13:09:00,sdl,23.27
2022-06-27T13:10:00,sdl,23.22
2022-06-27T13:11:00,sdl,23.10
2022-06-27T13:12:00,sdl,22.95
2022-06-27T13:13:00,sdl,22.07
2022-06-27T13:14:00,sdl,24.38
2022-06-27T13:15:00,sdl,24.24
2022-06-27T13:16:00,sdl,24.25
2022-06-27T13:17:00,sdl,24.25
2022-06-27T13:18:00,sdl,24.81
2022-06-27T13:19:00,sdl,24.73
2022-06-27T13:20:00,sdl,24.24
2022-06-27T13:21:00,sdl,24.36
2022-06-27T13:22:00,sdl,24.31
2022-06-27T13:23:00,sdl,24.34
2022-06-27T13:24:00,sdl,24.80
2022-06-27T13:25:00,sdl,24.91
2022-06-27T13:26:00,sdl,24.73
2022-06-27T13:27:00,sdl,24.67
2022-06-27T13:28:00,sdl,24.74